TimePDT,TemperatureF,Dew PointF,Humidity,Sea Level PressureIn,VisibilityMPH,Wind Direction,Wind SpeedMPH,Gust SpeedMPH,PrecipitationIn,Events,Conditions,WindDirDegrees,DateUTC
12:53 AM,61.0,42.1,50,29.99,10.0,NW,6.9,-,N/A,,Clear,310,2013-09-09 07:53:00
1:53 AM,59.0,37.9,46,29.99,10.0,NW,6.9,-,N/A,,Clear,320,2013-09-09 08:53:00
2:53 AM,54.0,41.0,62,30.00,10.0,Calm,Calm,-,N/A,,Clear,0,2013-09-09 09:53:00
3:53 AM,53.1,42.1,66,29.99,10.0,Calm,Calm,-,N/A,,Clear,0,2013-09-09 10:53:00
4:53 AM,50.0,42.1,74,30.00,10.0,Calm,Calm,-,N/A,,Clear,0,2013-09-09 11:53:00
5:53 AM,46.9,39.0,74,30.00,10.0,NE,3.5,-,N/A,,Clear,40,2013-09-09 12:53:00
6:53 AM,46.9,41.0,80,30.01,10.0,NE,3.5,-,N/A,,Clear,40,2013-09-09 13:53:00
7:53 AM,59.0,46.0,62,30.01,10.0,NNE,5.8,-,N/A,,Clear,20,2013-09-09 14:53:00
8:53 AM,64.0,45.0,50,30.00,10.0,NNW,6.9,-,N/A,,Clear,340,2013-09-09 15:53:00
9:53 AM,66.9,45.0,45,30.00,10.0,NW,3.5,-,N/A,,Clear,310,2013-09-09 16:53:00
10:53 AM,71.1,43.0,36,29.98,10.0,NE,3.5,-,N/A,,Clear,50,2013-09-09 17:53:00
11:53 AM,75.0,42.1,31,29.96,10.0,Variable,5.8,-,N/A,,Clear,0,2013-09-09 18:53:00
12:53 PM,78.1,39.0,25,29.94,10.0,Variable,3.5,-,N/A,,Clear,0,2013-09-09 19:53:00
1:53 PM,82.0,37.9,21,29.91,10.0,NE,3.5,-,N/A,,Clear,50,2013-09-09 20:53:00
2:53 PM,82.9,34.0,17,29.90,10.0,Variable,5.8,-,N/A,,Clear,0,2013-09-09 21:53:00
3:53 PM,84.9,34.0,16,29.88,10.0,Variable,4.6,-,N/A,,Clear,0,2013-09-09 22:53:00
4:53 PM,84.9,30.9,14,29.87,10.0,NW,8.1,-,N/A,,Clear,310,2013-09-09 23:53:00
5:53 PM,84.0,27.0,13,29.87,10.0,NW,8.1,-,N/A,,Clear,310,2013-09-10 00:53:00
6:53 PM,81.0,32.0,17,29.87,10.0,WSW,3.5,-,N/A,,Clear,240,2013-09-10 01:53:00
7:53 PM,71.1,36.0,28,29.87,10.0,NNE,5.8,-,N/A,,Clear,30,2013-09-10 02:53:00
8:53 PM,64.0,37.9,38,29.89,10.0,East,8.1,-,N/A,,Clear,90,2013-09-10 03:53:00
9:53 PM,64.0,37.0,37,29.89,10.0,NE,8.1,-,N/A,,Clear,40,2013-09-10 04:53:00
10:53 PM,62.1,37.0,39,29.89,10.0,East,4.6,-,N/A,,Clear,100,2013-09-10 05:53:00
11:53 PM,64.9,41.0,42,29.89,10.0,WNW,5.8,-,N/A,,Clear,300,2013-09-10 06:53:00